{"data":{"norad_id":57186,"epoch":"2026-05-25T04:47:36.877632Z","epoch_age_seconds":47957,"freshness":"FRESH","line1":"1 57186U 23091W   26145.19973238  .00008891  00000+0  32207-3 0  9994","line2":"2 57186  97.5160 211.2404 0018934 169.9183 190.2440 15.28455203160948","mean_motion":15.28455203,"eccentricity":0.0018934,"inclination_deg":97.516,"raan_deg":211.2404,"arg_perigee_deg":169.9183,"mean_anomaly_deg":190.244,"bstar":0.00032207,"rev_number":16094,"period_min":94.212770984299,"perigee_km":467.44366385533,"apogee_km":493.41568413641,"semimajor_km":6858.5666739959,"source":"CELESTRAK","updated_at":"2026-05-25T13:37:59.911207Z"}}